STARLINK-31682

decayed
NORAD ID: 59440 Int'l Des: 2024-065 Owner: SPXS Country: US Constellation: starlink
LEOCIRCULAR
Group

About STARLINK-31682

Description loading...

Altitude History

Altitude vs Time

uPlot chart will show altitude changes over time

Two-Line Element Set

1 59440U 24065V 24284.14952637 .02920098 11820-4 13750-2 0 9990
2 59440 53.1391 118.5588 0011131 268.9440 197.3175 16.20696527 30529
Epoch: Oct 10, 2024 • Age: 8187 hours

Current Status

Position data unavailable
Launch Date Apr 7, 2024
Age 1.4 years
Decay Date Oct 11, 2024
Type internet

Technical Details

Classification Payload
Mass 730.00 kg
Dry Mass 700.00 kg
Total Mass 730.00 kg
Length 0.30 m
Diameter 4.10 m
Span 29.00 m
Shape Box + pan
Manufacturer SPXS
Bus Type Starlink V2M
Phase Status Unknown Transfer Status
Owner/State SPXS/US

Large Constellations

Loading constellations...